NOAA 16 DEB

Satellite information

Favourite Embed

Satellite Type and Status

DEBRISIN ORBIT

Key statistics

Satellite NOAA 16 DEB at a glance.

Uptime

8994

Days in orbit

Revolutions

≈ 14.1

Per day

Orbit

SSO

Sun Synchronous Orbit

Inclination

98.6

Latest

Satellite identification and parameters

Extended collection of information and parameters for NOAA 16 DEB.

Object identification

Identified? True

Debris? True

Object name: NOAA 16 DEB

International designator: 2000-055AW

Object number (NORAD): 41087

Object ID (CCSDS): 41087

Country: UNITED STATES OF AMERICA (US)

Current information (Y/N): Y

RCS size: SMALL

Orbital parameters

Period: 101.929 minutes

Inclination: 98.5727 deg

SMA: 7228.118 km

Apoapsis: 859.076 km

Periapsis: 840.889 km

RAAN: 150.9367 deg

Eccentricy: 0.0012581

Argument of periapsis: 248.2883 deg

Mean anomaly: 111.6951 deg

Mean motion: 14.12748772 rev/day

Mean motion (dot): 0.00001334 rev/day2

B* drag term: 0.00074058 1/REarth

Two-line elements (TLE)

Creation date: May 5, 2025, 2:36 p.m.

Reference frame: TEME

Reference center: EARTH

Epoch: May 5, 2025, 12:53 p.m. UTC

TLE line 0: 0 NOAA 16 DEB

TLE line 1: 1 41087U 00055AW 25125.53702823 .00001334 00000-0 74058-3 0 9993

TLE line 2: 2 41087 98.5727 150.9367 0012581 248.2883 111.6951 14.12748772485153

Live tracking on map

Real-time ground track for satellite NOAA 16 DEB.

In-orbit conjunctions

A list of the most updated potential collisions computed for object NOAA 16 DEB.

Target Orbit TCA Probability of collision Miss distance Type
COSMOS 2360 LEO 2024-11-10 02:10:25 0.004212673 89.0 (m) PAYLOAD
METEOR 1-27 LEO 2024-09-12 14:50:37 0.000310157 985.0 (m) PAYLOAD

Associated space launch

The NOAA K, L and M POES satellites begin the fifth generation of improved environmental monitoring in support of NOAA missions. The instrument payload has significant improvements and additions/deletions. The instrument changes have effected the spacecraft subsystems and data formats.

NOAA 16 DEB was lifted into orbit during the mission ‘Titan II SLV | NOAA 16’, on board a Titan II SLV space rocket.

The launch took place on Sept. 21, 2000, 10:22 a.m. from Space Launch Complex 4W.

For more information about the launch, click the button.

Launch to space Titan II SLV | NOAA 16
Titan II SLV | NOAA 16

Agency: N/A

Status: Launch Successful

Launch date: Sept. 21, 2000, 10:22 a.m. UTC

Rocket: Titan II SLV

Launch pad: Space Launch Complex 4W

Location: Vandenberg SFB, CA, USA

...

Latest news about this satellite

There are no fresh news available about this satellite. Check back as we update our databases every day.


Newsletter sign-up

Weekly statistics, charts and insights to help you stay on top of the space industry.